User: anonymous   Login
Location: Unspecified
(0.0000°N, 0.0000°E)
Time: 05:24:46
(UTC+00:00)
Language:

STARLINK-31269 - Orbit

View from above orbital plane
View from above orbital plane
View from above satellite
View from above satellite

Ground track
Ground track

The orbit is defined by the following mean orbital elements,

1 58844U          26144.94165137 +.00000000 +00000-0 +10467-4 0 00007
2 58844  53.1601 300.2614 0001123 104.6447 255.4678 15.30195622    07
Epoch (UTC): 24 May 2026 22:35:58
Eccentricity: 0.0001123
inclination: 53.1601°
perigee height: 474 km
apogee height: 476 km
right ascension of ascending node: 300.2614°
argument of perigee: 104.6447°
revolutions per day: 15.30195622
mean anomaly at epoch: 255.4678°

The dashed part of the orbit path shows where the satellite is in the earth's shadow,  

DLR